• Processing (Info)

  • MPEC 2019-V70 : 2019 VE2

    The following Minor Planet Electronic Circular may be linked-to from your own Web pages, but must not otherwise be redistributed electronically.

    A form allowing access to any MPEC is at the bottom of this page.


    Read MPEC 2019-V69 Read MPEC 2019-V71


    M.P.E.C. 2019-V70                              Issued 2019 November 5, 15:39 UT
    
         The Minor Planet Electronic Circulars contain information on unusual
             minor planets and routine data on comets.  They are published
        on behalf of Division F of the International Astronomical Union by the
              Minor Planet Center, Smithsonian Astrophysical Observatory,
                              Cambridge, MA 02138, U.S.A.
    
                 Prepared using the Tamkin Foundation Computer Network
    
                                  MPC@CFA.HARVARD.EDU
                URL https://www.minorplanetcenter.net/    ISSN 1523-6714
    
                                    2019 VE2                                 
    
    
    Observations:
         K19V02E  C2019 11 03.30291701 41 25.844+33 05 56.40         20.5 GVEV070F51
         K19V02E  C2019 11 03.31463001 41 39.731+33 05 32.17         20.3 GVEV070F51
         K19V02E  C2019 11 03.32656101 41 53.831+33 05 06.50         20.2 GVEV070F51
         K19V02E  C2019 11 03.33925701 42 08.808+33 04 37.96               VEV070F51
         K19V02E* C2019 11 04.21584 02 02 54.38 +32 15 16.3          20.1 GVEV070G96
         K19V02E  C2019 11 04.22101 02 03 01.47 +32 14 57.7          20.4 GVEV070G96
         K19V02E  C2019 11 04.22618 02 03 08.52 +32 14 38.5          20.5 GVEV070G96
         K19V02E  C2019 11 04.23134 02 03 15.64 +32 14 19.0          20.1 GVEV070G96
         K19V02E  C2019 11 04.32929702 05 50.358+32 08 36.99         19.8 GVEV070F51
         K19V02E  C2019 11 04.42012 02 07 38.42 +32 00 03.5          19.7 GVEV070I52
         K19V02E  C2019 11 04.42110 02 07 39.91 +31 59 58.1          19.4 GVEV070I52
         K19V02E  C2019 11 04.42305 02 07 42.67 +31 59 47.9          19.9 GVEV070I52
         K19V02E  C2019 11 05.25838 02 30 54.91 +30 47 28.4          18.9 GVEV070I52
         K19V02E  C2019 11 05.26218 02 31 00.87 +30 47 05.6          19.6 GVEV070I52
         K19V02E  C2019 11 05.26599 02 31 06.83 +30 46 42.6          19.8 GVEV070I52
    
    Observer details:
    F51 Pan-STARRS 1, Haleakala.  Observers J. Bulger, K. Chambers, T. Lowe, E. 
       Magnier, A. Schultz, M. Willman.  Measurers S. Chastel, M. Huber, Y. 
       Ramanjooloo, R. Wainscoat, R. Weryk.  1.8-m Ritchey-Chretien + CCD.
    G96 Mt. Lemmon Survey.  Observer E. J. Christensen.  Measurers E. J. 
       Christensen, G. A. Farneth, D. C. Fuls, A. R. Gibbs, A. D. Grauer, H. 
       Groeller, R. A. Kowalski, S. M. Larson, G. J. Leonard, T. A. Pruyne, D. 
       Rankin, R. L. Seaman, F. C. Shelly, K. W. Wierzchos.  1.5-m reflector + 10K 
       CCD.
    I52 Steward Observatory, Mt. Lemmon Station.  Observers R. A. Kowalski, K. W. 
       Wierzchos, D. Rankin.  Measurers E. J. Christensen, G. A. Farneth, D. C. 
       Fuls, A. R. Gibbs, A. D. Grauer, H. Groeller, R. A. Kowalski, S. M. Larson, 
       G. J. Leonard, T. A. Pruyne, D. Rankin, R. L. Seaman, F. C. Shelly, K. W. 
       Wierzchos.  1.0-m reflector + CCD.
    
    Orbital elements:
    2019 VE2                                                 Earth MOID = 0.0159 AU
    Epoch 2019 Apr. 27.0 TT = JDT 2458600.5                 Veres
    M 238.53362              (2000.0)            P               Q
    n   0.57835025     Peri.  196.19313     +0.46871391     -0.88097990
    a   1.4267310      Node   225.90878     +0.82011796     +0.46119336
    e   0.2997267      Incl.    5.16562     +0.32819782     +0.10571238
    P   1.70           H   27.4           G   0.15           U   6
    Residuals in seconds of arc
    191103 F51  0.1+  0.0     191104 G96  0.6-  0.1+    191104 I52  0.7+  0.2-
    191103 F51  0.1+  0.0     191104 G96  0.7-  0.1+    191104 I52  0.2-  0.1-
    191103 F51  0.0   0.0     191104 G96  0.3+  0.1-    191105 I52  0.4-  0.1+
    191103 F51  0.1-  0.0     191104 F51  0.3+  0.1-    191105 I52  0.1+  0.1+
    191104 G96  1.0-  0.3-    191104 I52  0.1-  0.1+    191105 I52  0.3+  0.1+
    
    Ephemeris:
    2019 VE2                 a,e,i = 1.43, 0.30, 5                   q = 0.9991
    Date    TT    R. A. (2000) Decl.     Delta      r    Elong.  Phase     V
    2019 10 06    23 14 26.5 +29 34 12   0.1072  1.0917   147.3    29.7    24.0
    ...
    2019 10 21    23 35 05.7 +32 24 18   0.06046 1.0451   143.7    34.3    22.8
    ...
    2019 10 29    00 21 24.9 +33 55 03   0.03809 1.0259   147.7    31.2    21.7
    ...
    2019 11 04    01 57 23.5 +32 29 15   0.02402 1.0146   160.7    18.8    20.3
    2019 11 05    02 23 30.5 +31 13 08   0.02222 1.0130   163.9    15.8    20.0
    2019 11 06    02 52 54.9 +29 19 50   0.02068 1.0115   166.2    13.5    19.8
    ...
    2019 11 12    06 03 29.7 +05 19 42   0.01980 1.0041   135.0    44.2    20.6
    ...
    2019 11 20    08 04 15.4 -14 43 20   0.03562 0.9988   106.4    71.7    22.7
    ...
    2019 12 05    09 01 44.3 -22 36 48   0.07342 1.0043   102.7    73.2    24.3
    
    A. U. Tomatic                (C) Copyright 2019 MPC           M.P.E.C. 2019-V70
    


    Read MPEC 2019-V69 Read MPEC 2019-V71


    MPEC number:

    Enter an MPEC number in one of the following forms:

    • 1997-B01 (the full form)
    • J97B01 (the packed version of the full form)
    • B01 (the abbreviated form)